EW9525 Weather Reports


Display with metric or nautical units.
time (UTC)temp
F
wind
direction
speed
MPH
gust
MPH
rain 1hr
in
rain 24hr
in
rain mn
in
humidity
%
barometer
mb
20260510144553 59 153 6.0 9.0 0.00 0.00 0.00 47 1021.7
20260510143053 59 139 5.0 8.0 0.00 0.00 0.00 46 1021.9
20260510141548 58 169 4.0 8.0 0.00 0.00 0.00 48 1021.8
20260510140045 57 211 2.0 4.0 0.00 0.00 0.00 48 1021.8
20260510134542 56 258 2.0 5.0 0.00 0.00 0.00 60 1021.7
20260510133041 53 263 2.0 5.0 0.00 0.00 0.00 65 1021.7
20260510131536 53 255 2.0 4.0 0.00 0.00 0.00 63 1021.4
20260510130035 51 249 1.0 4.0 0.00 0.00 0.00 68 1021.1
20260510124533 50 226 2.0 5.0 0.00 0.00 0.00 71 1021.2
20260510123031 49 264 3.0 5.0 0.00 0.00 0.00 70 1020.8
20260510121530 49 251 2.0 4.0 0.00 0.00 0.00 71 1020.6
20260510120030 48 250 2.0 5.0 0.00 0.00 0.00 71 1020.7
20260510114528 49 254 4.0 6.0 0.00 0.00 0.00 68 1020.3
20260510113025 49 255 1.0 5.0 0.00 0.00 0.00 66 1019.9
20260510111525 48 266 1.0 3.0 0.00 0.00 0.00 71 1019.9
20260510110022 48 281 1.0 2.0 0.00 0.00 0.00 74 1019.8
20260510104520 49 281 0.0 1.0 0.00 0.00 0.00 71 1019.7
20260510103020 50 274 0.0 2.0 0.00 0.00 0.00 66 1019.7
20260510101519 49 223 0.0 0.0 0.00 0.00 0.00 69 1019.9
20260510100018 50 276 0.0 0.0 0.00 0.00 0.00 66 1019.7
20260510094533 50 314 0.0 0.0 0.00 0.00 0.00 68 1019.5
20260510093014 50 259 0.0 0.0 0.00 0.00 0.00 67 1019.3
20260510091512 50 266 0.0 2.0 0.00 0.00 0.00 69 1019.3
20260510090012 49 271 0.0 2.0 0.00 0.00 0.00 69 1019.1
20260510084518 49 278 1.0 2.0 0.00 0.00 0.00 70 1019.1
20260510083009 49 280 1.0 2.0 0.00 0.00 0.00 72 1019.0
20260510081508 49 287 1.0 3.0 0.00 0.00 0.00 72 1019.0
20260510080016 48 287 1.0 3.0 0.00 0.00 0.00 72 1018.8
20260510074506 49 304 1.0 3.0 0.00 0.00 0.00 71 1018.8
20260510073009 49 304 1.0 2.0 0.00 0.00 0.00 69 1018.7
20260510071600 50 315 1.0 2.0 0.00 0.00 0.00 67 1018.6
20260510070058 51 323 1.0 3.0 0.00 0.00 0.00 67 1018.6
20260510064600 51 295 3.0 6.0 0.00 0.00 0.00 70 1018.1
20260510063050 53 308 2.0 4.0 0.00 0.00 0.00 66 1017.7
20260510061547 55 20 1.0 2.0 0.00 0.00 0.00 65 1017.1
20260510060047 55 59 3.0 8.0 0.00 0.00 0.00 63 1016.7
20260510054545 54 75 4.0 8.0 0.00 0.00 0.00 68 1016.7
20260510053042 55 60 0.0 1.0 0.00 0.00 0.00 65 1017.4
20260510051540 55 313 2.0 6.0 0.00 0.00 0.00 67 1017.9
20260510050038 55 316 1.0 3.0 0.00 0.00 0.00 69 1017.3
20260510044536 56 330 1.0 4.0 0.00 0.00 0.00 66 1017.2
20260510043036 57 287 4.0 6.0 0.00 0.00 0.00 63 1017.8
20260510041535 57 305 4.0 6.0 0.00 0.00 0.00 59 1017.2
20260510040030 58 325 4.0 7.0 0.00 0.00 0.00 59 1016.6
20260510034527 58 339 5.0 9.0 0.00 0.00 0.00 57 1016.3
20260510033026 59 350 5.0 8.0 0.00 0.00 0.00 56 1015.9
20260510031524 59 350 6.0 11.0 0.00 0.00 0.00 55 1015.5
20260510030023 59 328 9.0 13.0 0.00 0.00 0.00 53 1014.9
20260510024518 60 340 8.0 16.0 0.00 0.00 0.00 52 1014.2
20260510023016 60 8 12.0 20.0 0.00 0.00 0.00 51 1013.1
20260510021514 61 7 12.0 19.0 0.00 0.00 0.00 50 1012.6
20260510020011 62 350 17.0 25.0 0.00 0.00 0.00 49 1012.0
20260510014511 63 330 15.0 22.0 0.00 0.00 0.00 46 1011.8
20260510013008 65 325 18.0 24.0 0.00 0.00 0.00 43 1011.0
20260510011508 67 343 15.0 22.0 0.00 0.00 0.00 38 1010.6
20260510010005 68 12 16.0 25.0 0.00 0.00 0.00 36 1010.2
20260510004600 70 10 16.0 28.0 0.00 0.00 0.00 34 1009.7
20260510003101 71 13 20.0 28.0 0.00 0.00 0.00 31 1009.2
20260510001559 73 20 18.0 25.0 0.00 0.00 0.00 29 1009.2
20260510000058 73 29 18.0 25.0 0.00 0.00 0.00 29 1009.2
20260509234557 72 34 18.0 23.0 0.00 0.00 0.00 30 1009.1
20260509233056 73 5 18.0 26.0 0.00 0.00 0.00 29 1008.9
20260509231558 74 20 15.0 22.0 0.00 0.00 0.00 28 1008.8
20260509230059 76 359 15.0 25.0 0.00 0.00 0.00 27 1008.5
20260509224559 76 6 15.0 25.0 0.00 0.00 0.00 28 1008.3
20260509223054 77 352 16.0 24.0 0.00 0.00 0.00 27 1008.0
20260509221552 78 8 20.0 28.0 0.00 0.00 0.00 27 1007.9
20260509220055 79 335 16.0 23.0 0.00 0.00 0.00 28 1007.7
20260509214558 80 20 16.0 24.0 0.00 0.00 0.00 28 1007.6
20260509213113 79 317 8.0 17.0 0.00 0.00 0.00 28 1007.6
20260509211553 79 327 9.0 17.0 0.00 0.00 0.00 30 1007.6
20260509204548 79 322 13.0 19.0 0.00 0.00 0.00 29 1007.7
20260509203048 79 329 11.0 18.0 0.00 0.00 0.00 29 1007.7
20260509201547 78 326 14.0 22.0 0.00 0.00 0.00 30 1007.6
20260509200047 79 323 16.0 23.0 0.00 0.00 0.00 30 1007.3
20260509194547 78 14 15.0 22.0 0.00 0.00 0.00 28 1007.5
20260509193045 79 8 16.0 22.0 0.00 0.00 0.00 29 1007.3
20260509191544 78 41 12.0 17.0 0.00 0.00 0.00 30 1007.3
20260509190043 77 43 9.0 19.0 0.00 0.00 0.00 32 1007.3
20260509184551 77 349 9.0 19.0 0.00 0.00 0.00 33 1007.2
20260509183038 76 8 12.0 16.0 0.00 0.00 0.00 33 1007.3
20260509181549 75 338 10.0 17.0 0.00 0.00 0.00 34 1007.5
20260509180032 73 6 9.0 15.0 0.00 0.00 0.00 35 1007.6
20260509174528 71 6 8.0 14.0 0.00 0.00 0.00 37 1007.8
20260509173026 70 21 8.0 13.0 0.00 0.00 0.00 38 1007.8
20260509171524 70 357 8.0 12.0 0.00 0.00 0.00 39 1008.1
20260509170022 68 20 7.0 14.0 0.00 0.00 0.00 42 1008.2
20260509164531 67 348 6.0 10.0 0.00 0.00 0.00 45 1008.2
20260509163017 66 8 4.0 9.0 0.00 0.00 0.00 45 1008.2
20260509161512 65 356 4.0 8.0 0.00 0.00 0.00 47 1008.2
20260509160010 63 349 3.0 7.0 0.00 0.00 0.00 53 1008.4
20260509154508 62 338 6.0 8.0 0.00 0.00 0.00 55 1008.6
20260509153007 62 343 1.0 2.0 0.00 0.00 0.00 53 1008.6
20260509151507 61 307 0.0 2.0 0.00 0.00 0.00 58 1008.6
20260509150006 62 156 0.0 1.0 0.00 0.00 0.00 50 1008.6